Location: Auckland
(36.8670°S, 174.7670°E)
Time: 10:24:29
(UTC+12:00)

Cosmos 2278 Rocket - Pass Details

Date: 24 January 2019
Orbit: 841 x 846 km, 71.0° (Epoch: 18 April)

Event Time Altitude Azimuth Distance (km) Brightness Sun altitude
Rises 23:30:07 0° 189° (S) 3,432 6.4 -26.9°
Reaches altitude 10° 23:33:10 10° 174° (S) 2,489 5.3 -27.2°
Maximum altitude 23:37:32 22° 124° (SE) 1,779 3.9 -27.7°
Enters shadow 23:38:01 22° 117° (ESE) 1,788 3.8 -27.7°
